Location: Casa Rossa
(45.2389°N, 12.2056°E)
Time: 23:45:28
(UTC+00:00)

Cosmos 2082 Rocket - Pass Details

Date: 14 July 2020
Orbit: 834 x 853 km, 71.0° (Epoch: 14 August)

Event Time Altitude Azimuth Distance (km) Brightness Sun altitude
Exits shadow 00:40:56 18° 144° (SE) 1,948 3.8 -20.5°
Maximum altitude 00:43:44 27° 103° (ESE) 1,581 3.7 -20.3°
Drops below altitude 10° 00:48:25 10° 47° (NE) 2,487 5.6 -20.0°
Sets 00:51:12 0° 36° (NE) 3,426 6.8 -19.8°
